Hourly Data Report for May 21, 2021

WINNIPEG THE FORKS
MANITOBA
Current Station Operator: ECCC - MSC

49°53'18.008" N
97°07'46.007" W
230.00 m
5023262
71579
XWN

Download Data

Hourly Data (May 2021)
Hourly Data Report for May 21, 2021
TIME
LST
Temp Definition
°C
Dew Point Definition
°C
Rel Hum Definition
%
Precip. Amount Definition
mm

Wind Dir Definition
10's deg

Wind Spd Definition
km/h
Visibility Definition
km
Stn Press Definition
kPa
Hmdx Definition


Wind Chill Definition


Weather Definition


00:00 7.7 5.8 88 0.0 36 11   98.96     LegendNANA
01:00 7.4 5.9 91 0.0 36 10   98.98     LegendNANA
02:00 7.2 6.0 92 0.0 1 9   98.97     LegendNANA
03:00 6.7 5.7 93 0.0 36 10   98.95     LegendNANA
04:00 7.0 6.2 94 0.0 35 9   98.94     LegendNANA
05:00 7.2 6.4 95 0.0 35 7   98.99     LegendNANA
06:00 7.6 6.9 95 0.0 3 7   99.04     LegendNANA
07:00 7.9 7.1 94 0.0 3 9   99.00     LegendNANA
08:00 8.9 7.3 89 0.0 5 6   98.98     LegendNANA
09:00 10.3 7.8 84 0.0 3 7   98.95     LegendNANA
10:00 11.4 8.2 80 0.0 5 4   98.98     LegendNANA
11:00 12.2 8.9 80 0.0 4 8   98.94     LegendNANA
12:00 12.7 9.8 82 0.0 5 8   98.91     LegendNANA
13:00 13.4 11.1 86 0.0 6 5   98.88     LegendNANA
14:00 13.2 11.5 89 1.6 30 3   98.96     LegendNANA
15:00 11.3 9.8 91 0.3 33 8   98.96     LegendNANA
16:00 10.9 9.4 91 0.0 32 7   99.05     LegendNANA
17:00 10.4 8.8 90 0.0 32 9   99.10     LegendNANA
18:00 10.1 8.3 88 0.0 33 14   99.21     LegendNANA
19:00 10.0 7.5 85 0.0 33 8   99.26     LegendNANA
20:00 9.5 7.1 85 0.0 33 8   99.31     LegendNANA
21:00 8.4 6.5 88 0.0 35 11   99.37     LegendNANA
22:00 7.3 5.1 86 0.0 34 9   99.46     LegendNANA
23:00 6.5 4.2 85 0.0 35 13   99.40     LegendNANA

Notes on Data Quality.

Legend

  • E = Estimated
  • M = Missing
  • NA = Not Available*
  • [empty] = Indicates an unobserved value
Date modified: